sat.trackr.live / text

‹ back to catalog

ONEWEB-0637

NORAD 56078 · 2023-043AJ

PAYLOAD ACTIVE UNKNOWN

§ Identity

Operator
Country
UK
Launch date
2023-03-26
Launch site
SRILR
Launch vehicle
Mass (kg)
RCS (m²)

Purposes: comms

External: N2YO · Heavens-Above · Gunter

§ Orbital elements

Epoch: 2026-09-20T04:50:14.372736Z

Period
109.46 min
Inclination
87.8984°
Eccentricity
0.0002076
Mean motion
13.15547943 rev/d
Perigee alt
1,200.2 km
Apogee alt
1,203.3 km
Semi-major
7,579.9 km
B*
-2.9130e-4
RAAN
240.2668°
Arg perigee
91.0604°
Mean anomaly
269.0764°
Rev number
16,892

§ Raw data

ONEWEB-06371 56078U 23043AJ  26263.20155524 -.00000097  00000+0 -29130-3 0  99962 56078  87.8984 240.2668 0002076  91.0604 269.0764 13.15547943168927

JSON: /api/v1/satellites/56078 · /tle

For live sub-satellite position, see the globe view (requires WebGL).

§ Visibility from observer

Set your observer location to see the next 7 days of passes ≥ 10°. The values pass through the URL so the page stays shareable.

No JS? Fill the form by hand. The geolocation button needs JavaScript.